Location: Igri�s
(42.2144°N, 0.4320°W)
Time: 17:24:52
(UTC+00:00)

Cosmos 1833 Rocket - Pass Details

Date: 13 August 2020
Orbit: 831 x 841 km, 71.0° (Epoch: 19 September)

Event Time Altitude Azimuth Distance (km) Brightness Sun altitude
Rises 19:26:33 0° 197° (SSW) 3,361 5.7 -4.5°
Reaches altitude 10° 19:28:58 10° 195° (SSW) 2,432 5.0 -5.0°
Maximum altitude 19:34:31 74° 112° (ESE) 868 2.7 -5.9°
Drops below altitude 10° 19:40:08 10° 28° (NNE) 2,455 5.1 -6.8°
Sets 19:42:36 0° 26° (NNE) 3,395 5.9 -7.2°
